Regional Weather Roundup
Issued by NWS Grand Forks, ND

Home | Current Version | Previous Version | Text Only | Print | Product List | Glossary Off
Versions: 1 2 3 4 5 6 7 8 9 10 11 12 13 14 15 16 17 18 19 20 21 22 23 24 25 26 27 28 29 30 31 32 33 34 35 36 37 38 39 40 41 42 43 44 45 46 47 48 49 50

000
ASUS43 KFGF 030510
RWRFGF
PRAIRIE TO PINES  WEATHER ROUNDUP
NATIONAL WEATHER SERVICE EASTERN NORTH DAKOTA/GRAND FORKS ND
1200 AM CDT SUN MAY 03 2015

 **SATELLITE DATA USED TO AUGMENT SKY COVER AT AUTOMATED STATIONS**
 *****  WEATHER ACROSS EASTERN NORTH DAKOTA  *****

CITY           SKY/WX    TMP DP  RH WIND       PRES   REMARKS
GRAND FORKS    CLEAR     50  43  77 CALM      29.59S
GRAND FRKS AFB PTCLDY    46  42  85 NW8       29.60R
GRAND FRKS NWS   N/A     54 N/A N/A SW2         N/A
DEVILS LAKE    PTCLDY    57  36  44 N14       29.65R
FARGO          PTCLDY    63  51  65 S12       29.60S
WAHPETON ARPT  CLOUDY    64  48  55 SE5       29.65R
$$

 ***** WEATHER ACROSS CENTRAL AND WESTERN NORTH DAKOTA  *****

CITY           SKY/WX    TMP DP  RH WIND       PRES   REMARKS
BISMARCK       MOCLDY    60  34  37 N3        29.69R
MINOT          PTCLDY    54  36  50 NW12      29.75R
JAMESTOWN      MOCLDY    54  36  50 NW6       29.65S
MINOT AFB      PTCLDY    56  37  50 NW14      29.74R
GARRISON         N/A     51  37  58 N10       29.74R
WILLISTON      MOCLDY    53  35  50 N9        29.82R
DICKINSON      MOCLDY    55  32  41 N9        29.75R
HETTINGER      PTCLDY    45  31  58 NW5       29.74S
$$

 *****  OTHER AIRPORT OBSERVATIONS IN OUR AREA  *****

CITY           SKY/WX    TMP DP  RH WIND       PRES   REMARKS
WALHALLA       FAIR      54  39  58 N12       29.65S
GRAFTON AIRPOR FAIR      55  46  71 NW8       29.61R
VALLEY CITY AR FAIR      59  37  44 NW12      29.64S
CANDO          FAIR      52  36  54 N10       29.68S
CAVALIER APRT  FAIR      59  39  47 NW12      29.63S
GWINNER        MOCLDY    66  46  48 CALM      29.66R
SHEYENNE NWR     N/A     70  43  37 W3        29.95
ROLLA          NOT AVBL
 ***** THE ABOVE OBSERVATIONS ARE NON NWS ARE NOT QUALITY
       CONTROLLED AND MAY MIS-REPORT RAIN FOR SNOW...
$$

  *****  WEATHER ACROSS NORTHERN MINNESOTA  *****

CITY           SKY/WX    TMP DP  RH WIND       PRES   REMARKS
FLAG ISLAND    LGT RAIN  61  48  63 CALM      29.59F
WARROAD        MOCLDY    64  46  52 W3        29.63R
ROSEAU         PTCLDY    63  45  51 W3        29.62F
HALLOCK        CLEAR     57  39  51 CALM      29.60F
THF RVR FALLS  PTCLDY    57  46  67 S7        29.61S
BAUDETTE       CLOUDY    62  43  49 S6        29.60F
WASKISH        CLOUDY    66  45  45 S8G16     29.61S
CROOKSTON      CLEAR     57  46  67 SW6       29.61R
$$
  *****  WEATHER ACROSS CENTRAL AND WEST MINNESOTA  *****

CITY           SKY/WX    TMP DP  RH WIND       PRES   REMARKS
FOSSTON        NOT AVBL
BEMIDJI        MOCLDY    57  43  59 SE5       29.63F
PARK RAPIDS    MOCLDY    61  48  62 S13       29.64F
ELBOW LAKE     MOCLDY    63  52  66 SE15      29.67R
WADENA         MOCLDY    61  48  63 SE15G24   29.66F
DETROIT LAKES  PTCLDY    63  50  63 S14       29.66S
MOORHEAD       PTCLDY    61  52  72 S14       29.62S
FERGUS FALLS   LGT RAIN  61  54  77 SE8       29.65F
MORRIS MN      MOCLDY    63  52  67 SE10      29.68F
STAPLES        CLOUDY    57  52  82 SE6       29.68F
$$
  *****  WEATHER ELSEWHERE ACROSS MINNESOTA  *****

CITY           SKY/WX    TMP DP  RH WIND       PRES   REMARKS
DULUTH         CLOUDY    54  43  66 SE8       29.72F
INTRNTL FALLS  CLOUDY    65  35  33 S3        29.62S
ELY            CLOUDY    61  39  44 S6        29.69F
CLOQUET        CLOUDY    52  43  71 CALM      29.73S
WHEATON        CLOUDY    61  50  67 E13       29.68S
BRAINERD       RAIN      63  49  60 VRB3G31   29.73F
HIBBING        CLOUDY    66  39  37 VRB6      29.67F
ALEXANDRIA     MOCLDY    60  52  74 E7        29.72S
SAINT CLOUD    MOCLDY    66  48  52 W9        29.76R
MINNEAPOLIS    PTCLDY    68  52  56 S12G22    29.78R
$$

  *****  WEATHER ACROSS SOUTH DAKOTA  *****

CITY           SKY/WX    TMP DP  RH WIND       PRES   REMARKS
SIOUX FALLS    MOCLDY    64  54  69 S12       29.71F
BROOKINGS      PTCLDY    64  52  63 S17       29.71S
WATERTOWN      PTCLDY    65  51  60 S16       29.67S
HURON          PTCLDY    68  52  56 S14G25    29.64S
SISSETON         N/A     67  52  58 SW16      29.63F
ABERDEEN       PTCLDY    65  49  56 N7        29.64R
MITCHELL       CLOUDY    68  56  65 S20       29.66F
PIERRE         PTCLDY    62  37  39 NE8       29.67S
MOBRIDGE       CLEAR     56  31  38 NW5       29.65R
RAPID CITY     CLEAR     52  31  44 N7        29.75S
$$

  *****  SOME WEATHER IN NEARBY STATES *****

CITY           SKY/WX    TMP DP  RH WIND       PRES   REMARKS
GLASGOW MT     MOCLDY    46  35  65 N7        29.89R
GREAT FALLS MT CLOUDY    44  28  53 N13       29.98R
CHEYENNE WY    CLOUDY    55  37  50 W16       29.95S
SCOTTSBLUFF NE MOCLDY    59  42  53 SW7       29.81F
OMAHA NE       TSTM      65  59  81 SW10      29.85R
DES MOINES IA  PTCLDY    58  51  78 S9        29.86F
DAVENPORT IA   PTCLDY    61  47  59 S8        29.96S
CHICAGO IL     MOCLDY    58  40  51 S7        29.96S
EAU CLAIRE WI  CLEAR     66  49  54 S13       29.81S
LA CROSSE WI   CLEAR     65  51  60 S10       29.86S
$$

  *****  SOME NATIONAL WEATHER *****

CITY           SKY/WX    TMP DP  RH WIND       PRES   REMARKS
LA GUARDIA NY  MOCLDY    51  38  60 S7        30.05S
RALEIGH NC     PTCLDY    51  49  92 CALM      30.12R
ATLANTA GA     PTCLDY    63  49  60 CALM      30.11S
NEW ORLEANS LA PTCLDY    68  60  75 SE7       30.07S
OKLAHOMA CITY  PTCLDY    65  56  72 S9        29.93F
ALBUQUERQUE NM PTCLDY    65  35  33 E7        30.05F
SALT LAKE CITY CLOUDY    65  41  41 W6        29.87S
LOS ANGELES CA CLEAR     59  53  80 S9        29.87R
BOISE ID       PTCLDY    63  28  26 N7        29.79R
SEATTLE WA     CLEAR     52  38  58 N7        30.01R
$$

*** WEATHER ACROSS MANITOBA...SASKATCHEWAN AND ONTARIO ***
                ***ONTARIO***

CITY           SKY/WX    TMP DP  RH WIND       PRES   REMARKS
GERALDTON      MOCLDY    48  41  76 S8        29.74F
THUNDER BAY    MOCLDY    41  37  87 NE7       29.75F
SIOUX LOOKOUT  LGT RAIN  55  50  82 VRB5      29.61F
TORONTO        MOCLDY    59  41  51 SW6       30.00R
BIG TROUT LK   MOCLDY    46  39  76 SW6       29.43F
PICKLE LAKE    NOT AVBL
DRYDEN         LGT RAIN  57  50  77 S8        29.62F
KENORA         LGT RAIN  57  48  72 S8        29.61S
$$
                *** MANITOBA***

CITY           SKY/WX    TMP DP  RH WIND       PRES   REMARKS
BRANDON        PTCLDY    43  32  65 W6        29.70R
DAUPHIN        MOCLDY    48  39  71 NE6       29.68S
ISLAND LAKE    PTCLDY    39  36  87 W6        29.56S
PILOT MOUND    NOT AVBL
THE PAS        PTCLDY    39  36  87 CALM      29.64S
THOMPSON       CLOUDY    43  36  75 NE12G18   29.61R
WINNIPEG       PTCLDY    50  39  66 NE13      29.66S
LYNN LAKE      CLOUDY    34  32  93 N13       29.72R WCI  25
CHURCHILL      LGT SNOW  25  23  93 N29       29.72S BLWGSNOWWCI   8
GILLAM         LGT RAIN  34  32  93 N12       29.60R FOG
$$
                ***SASKATCHEWAN***

CITY           SKY/WX    TMP DP  RH WIND       PRES   REMARKS
ESTEVAN        PTCLDY    41  36  81 NW8       29.80R
KINDERSLEY     CLEAR     37  27  65 W7        29.90R
LLOYDMINSTER   CLEAR     36  32  87 W8        29.89R
PRINCE ALBERT  LGT RAIN  43  39  87 W12       29.77R
REGINA         CLEAR     37  36  93 W8        29.82R
YORKTON        MOCLDY    46  39  76 W10       29.73S
N. BATTLEFORD  CLEAR     39  36  87 NW12      29.86R
LA RONGE       MOCLDY    41  34  75 NW7       29.74R
SASKATOON      MOCLDY    43  34  70 W12       29.82S
SWIFT CURRENT  CLEAR     39  25  56 NW6       29.89R
$$
NOTE: THESE ARE AUTOMATED STATIONS WITH LIMITED QUALITY CONTROL
      "FAIR" INDICATES FEW OR NO CLOUDS BELOW 12,000 FEET WITH NO
      SIGNIFICANT WEATHER AND/OR OBSTRUCTIONS TO VISIBILITY.
      SKY/WX - SKY CONDITION AND SIGNIFICANT WEATHER.
      TMP - AIR TEMPERATURE.    DP   - DEWPOINT TEMPERATURE.
      RH  - RELATIVE HUMIDITY.  PRES - PRESSURE.
      HX  - HEAT INDEX.         WCI  - WIND CHILL INDEX.
$



USA.gov is the U.S. government's official web portal to all federal, state and local government web resources and services.